www.pogodaiklimat.ru
ПОГОДА в Палм-Спрингсе
Время
и дата
15:52 21.05
16:52 21.05
17:52 21.05
18:52 21.05
19:52 21.05
20:52 21.05
21:52 21.05
22:52 21.05
23:52 21.05
00:52 22.05
01:52 22.05
02:52 22.05
03:52 22.05
04:52 22.05
05:52 22.05
06:52 22.05
07:52 22.05
08:52 22.05
09:52 22.05
10:52 22.05
11:52 22.05
12:52 22.05
13:52 22.05
14:52 22.05
15:52 22.05
16:52 22.05
17:52 22.05
18:52 22.05
19:52 22.05
20:52 22.05
21:52 22.05
22:52 22.05
23:52 22.05
00:52 23.05
01:52 23.05
02:52 23.05
03:52 23.05
04:52 23.05
05:52 23.05
06:52 23.05
07:52 23.05
08:52 23.05
09:52 23.05
10:52 23.05
11:52 23.05
12:52 23.05
13:52 23.05
14:52 23.05
Ветер
(напр.,м/с)
Видим. Явления Облачность Т
(С)
Тd
(С)
f
(%)
Тe
(С)
Тes
(С)
Комфортность P
(гПа)
Po
(гПа)
Тmin
(С)
Tmax
(С)
R
(мм)
R24
(мм)
S
(см)
ЮВ 2 16 км ясно +32.2 +1.7 14 +29 +35 жарко 1007.7 1011.9 +27.2 +32.8
ЮВ 1 16 км ясно +31.7 0.0 13 +29 +34 жарко 1008.5 1011.9
Ю 1 16 км ясно +30.6 +0.6 15 +28 +31 жарко 1008.7 1012.2
СЗ 3 16 км ясно +28.3 +9.4 31 +28 +29 жарко 1009.4 1012.9
СЗ 3 16 км ясно +25.0 +11.1 42 +26 +26 жарко 1009.5 1013.6
СЗ 3 16 км ясно +23.9 +11.1 45 +25 +25 комфорт 1010.2 1014.6
СЗ 4 16 км ясно +22.8 +11.1 48 +25 +25 комфорт 1011.5 1014.9 +22.8 +32.2
СЗ 4
{5}
16 км ясно +22.2 +10.6 48 +24 +24 комфорт 1010.6 1014.9
СЗ 2 16 км ясно +21.1 +10.6 51 +23 +23 комфорт 1011.8 1015.3
СЗ 3 16 км ясно +20.6 +10.6 53 +22 +22 комфорт 1010.6 1014.9
С 3 16 км ясно +20.0 +10.6 55 +21 +21 комфорт 1010.8 1014.9
С 3 16 км ясно +20.0 +10.0 53 +21 +21 комфорт 1011.2 1015.6
СЗ 2 16 км ясно +19.4 +10.0 55 +20 +20 1011.3 1015.6 +19.4 +22.8
СЗ 2 16 км ясно +19.4 +10.0 55 +20 +20 1012.6 1016.0
СЗ 1 16 км ясно +20.6 +10.0 51 +23 +23 комфорт 1013.3 1016.6
СЗ 2 16 км ясно +22.2 +10.0 46 +24 +25 комфорт 1013.8 1017.3
С 1 16 км ясно +24.4 +10.6 42 +26 +29 жарко 1012.9 1017.0
нст 1 16 км ясно +26.7 +10.6 36 +27 +36 жарко 1013.4 1016.6
штиль 0 16 км ясно +28.3 +10.6 33 +29 +47 жарко 1012.8 1016.3 +19.4 +28.9
нст 1 16 км ясно +30.0 +8.9 27 +29 +47 жарко 1011.7 1016.0
Ю 1 16 км ясно +31.7 +10.0 26 +31 +48 жарко 1010.7 1014.9
нст 1 16 км ясно +33.3 +9.4 23 +32 +53 опасность
солнечного
удара
1009.8 1013.9
Ю 2 16 км ясно +34.4 +9.4 22 +33 +46 жарко 1009.0 1013.2
штиль 0 16 км ясно +33.9 +9.4 22 +33 +54 опасность
солнечного
удара
1008.3 1012.6
ЮВ 1 16 км ясно +34.4 +8.9 21 +33 +42 жарко 1007.7 1011.9 +28.3 +34.4
Ю 1 16 км ясно +33.9 +8.9 22 +33 +38 жарко 1007.4 1011.5
ЮВ 2 16 км ясно +31.7 +10.6 27 +31 +33 жарко 1007.1 1011.2
штиль 0 10 км мгла ясно +27.8 +11.1 35 +29 +29 жарко 1007.7 1011.9
С 2 16 км ясно +28.9 +10.0 31 +29 +29 жарко 1008.3 1012.6
С 2 16 км ясно +26.7 +10.6 36 +27 +27 жарко 1008.7 1012.9
СЗ 3 16 км ясно +25.6 +10.0 37 +26 +26 жарко 1009.0 1013.2 +25.6 +34.4
СЗ 2 16 км ясно +24.4 +10.0 40 +25 +25 комфорт 1008.8 1012.9
СЗ 2 16 км ясно +23.9 +10.0 41 +25 +25 комфорт 1008.8 1013.2
СЗ 3 16 км ясно +23.3 +10.0 43 +25 +25 комфорт 1008.2 1012.6
СЗ 1 16 км ясно +22.2 +10.6 48 +24 +24 комфорт 1007.9 1012.2
З 1 16 км ясно +21.1 +10.6 51 +23 +23 комфорт 1008.1 1012.2
штиль 0 16 км ясно +19.4 +10.6 57 +20 +20 1008.1 1012.6 +18.9 +25.6
ЮЗ 1 16 км ясно +15.6 +10.0 69 +16 +16 1008.5 1012.9
штиль 0 16 км ясно +18.3 +11.1 63 +19 +19 1009.7 1013.9
СВ 1 16 км ясно +23.9 +11.1 45 +25 +27 комфорт 1010.1 1014.3
нст 1 16 км ясно +26.1 +10.0 36 +27 +31 жарко 1009.9 1014.3
штиль 0 16 км ясно +28.3 +10.0 32 +29 +41 жарко 1009.8 1013.9
штиль 0 16 км ясно +29.4 +10.6 31 +30 +48 жарко 1009.3 1013.6 +15.0 +30.6
ЮВ 1 16 км ясно +32.2 +11.7 29 +32 +47 жарко 1008.3 1012.6
Ю 2 16 км ясно +33.9 +10.0 23 +33 +47 жарко 1007.6 1011.9
ЮВ 2
{4}
16 км ясно +35.0 +7.8 19 +33 +44 жарко 1006.6 1010.9
В 2 16 км ясно +36.1 +5.6 15 +33 +44 жарко 1005.5 1009.8
ЮВ 2 16 км ясно +35.6 +3.9 14 +33 +41 жарко 1004.9 1009.2
Местоположение метеостанции Jacqueline Cochran Regional Airport: широта 33.6267 долгота -116.1594 высота над уровнем моря -38 м.
В архиве по умолчанию представлена погода в Палм-Спрингсе за последние 1-2 суток. Обновление информации о фактической погоде в базе происходит ежечасно! Архивные данные за месяц целиком и за предыдущие месяцы Вы можете получить, выбрав интересующий диапазон дат из раскрывающегося списка и нажав кнопку "Ввод!".
Внимание! Архив погоды МЕТАР в базе сайта по станциям, не включенным в климатический монитор, хранится не более 60 дней. Нет смысла пытаться выбрать более раннюю дату.
*Определитесь, кто Вы:
Внимание! Время в таблицах - местное (без учета летнего времени). Для получения всемирного времени необходимо вычесть поправку, которая равна -8 ч.
Смотрите также архив погоды в соседних городах и на ближайших метеорологических станциях:
Партнеры нашего сайта:      
Пояснения к столбцам:
  • Ветер - указаны скорость ветра в м/с - средняя за 10 мин, порывы в срок и между сроками (в фигурных скобках) и направление, откуда дует ветер: С - северный,
  • СВ - северо-восточный, В - восточный, ЮВ - юго-восточный, Ю - южный, ЮЗ - юго-западный, З - западный, СЗ - северо-западный.
  • Видимость - горизонтальная дальность видимости в метрах или километрах. При видимости от 1 до 10 км при отсутствии осадков обычно наблюдается дымка, при ухудшении видимости до 1 км и менее - туман. В сухую погоду видимость может ухудшаться дымом, пылью или мглою.
  • Явления - указаны атмосферные явления, наблюдавшиеся в срок или в последний час перед сроком; фигурными скобками обозначены явления, наблюдавшиеся между сроками (за 1-3 часа до срока); квадратными скобками обозначены град или гололедные отложения с указанием их диаметра в мм.
  • Облачность - указаны через наклонную черту общая и нижняя облачность в баллах и высота нижней границы облаков в метрах; квадратными скобками обозначены формы облаков: Ci - перистые, Cs - перисто-слоистые, Cc - перисто-кучевые, Ac - высококучевые, As - высокослоистые, Sc - слоисто-кучевые, Ns - слоисто-дождевые, Cu - кучевые, Cb - кучево-дождевые. Подробнее классификацию облаков см. в Атласе облаков (PDF).
  • T - Температура воздуха - температура, измеренная на высоте 2 м над землей.
  • Td - Температура точки росы - температура, при понижении до которой содержащийся в воздухе водяной пар достигнет насыщения.
  • f - Относительная влажность воздуха - влажноcть воздуха, измеренная на высоте 2 м над землей.
  • Te - Эффективная температура - температура, которую ощущает одетый по сезону человек в тени. Характеристика душности погоды. При расчете учитывается влияние влажности воздуха и скорости ветра на теплоощущения человека.
  • Tes - Эффективная температура на солнце - температура, которую ощущает человек, с поправкой на солнечный нагрев. Характеристика знойности погоды. Зависит от высоты солнца над горизонтом, облачности и скорости ветра. Ночью, в пасмурную погоду, а также при ветре 12 м/с и более поправка равна нулю.
  • P - Атмосферное давление - приведенное к уровню моря атмосферное давление.
  • Po - Атмосферное давление - измеренное на уровне метеостанции атмосферное давление.
  • Tmin - Минимальная температура - минимум температуры воздуха на высоте 2 м над землей.
  • Tmax - Максимальная температура - максимум температуры воздуха на высоте 2 м над землей.
  • R - Количество осадков - Количество выпавших осадков за период времени, мм. При наведении курсора мыши на число - период времени, за который выпало указанное количество осадков.
  • R24 - Количество осадков - Количество выпавших осадков за 24 часа, мм.
  • S - Снежный покров - Высота снежного покрова, см. При наведении курсора мыши на число - состояние снежного покрова и степень покрытия местности в баллах.